Location: Unspecified
(48.8656°N, 0.0000°E)
Time: 00:32:18
(UTC+00:00)

Courier 1B - All Passes

Search period start: 17 June 2019 00:00
Search period end: 27 June 2019 00:00
Orbit: 963 x 1209 km, 28.3° (Epoch: 16 June)

Date Brightness Start Highest point End Pass type
(mag) Time Alt. Az. Time Alt. Az. Time Alt. Az.
17 Jun - 21:07:21 10° SSW 21:11:06 14° S 21:14:52 10° SE visible
17 Jun - 22:59:54 10° SW 23:03:53 15° S 23:07:51 10° SSE visible
18 Jun - 20:14:33 10° S 20:17:35 13° SSE 20:20:39 10° SE daylight
18 Jun - 22:06:12 10° SW 22:10:20 15° S 22:14:30 10° SSE visible
19 Jun - 00:01:38 10° SSW 00:03:03 11° SSW 00:04:29 10° S visible
19 Jun - 19:22:31 10° S 19:24:06 11° SSE 19:25:41 10° SSE daylight
19 Jun - 21:12:43 10° SSW 21:16:46 15° S 21:20:54 10° SE visible
19 Jun - 23:06:39 10° SW 23:09:33 12° SSW 23:12:27 10° S visible
20 Jun - 20:19:28 10° SSW 20:23:15 14° S 20:27:05 10° SE daylight
20 Jun - 22:12:29 10° SW 22:16:01 14° S 22:19:34 10° SSE visible
21 Jun - 19:26:32 10° SSW 19:29:45 13° S 19:33:01 10° SE daylight
21 Jun - 21:18:41 10° SW 21:22:29 14° S 21:26:20 10° SSE visible
22 Jun - 18:34:06 10° S 18:36:16 11° SSE 18:38:28 10° SSE daylight
22 Jun - 20:25:09 10° SSW 20:28:57 15° S 20:32:49 10° SSE daylight
22 Jun - 22:20:07 10° SSW 22:21:40 11° SSW 22:23:13 10° S visible
23 Jun - 19:31:51 10° SSW 19:35:26 14° S 19:39:07 10° SSE daylight
23 Jun - 21:25:28 10° SSW 21:28:10 12° SSW 21:30:54 10° S visible
24 Jun - 18:38:48 10° SSW 18:41:57 13° S 18:45:11 10° SSE daylight
24 Jun - 20:31:29 10° SSW 20:34:40 13° S 20:37:53 10° SSE daylight
25 Jun - 17:46:09 10° S 17:48:31 12° SSE 17:50:55 10° SSE daylight
25 Jun - 19:37:51 10° SSW 19:41:10 14° S 19:44:34 10° SSE daylight
26 Jun - 18:44:27 10° SSW 18:47:41 14° S 18:51:00 10° SSE daylight
26 Jun - 20:39:35 10° SSW 20:40:21 10° SSW 20:41:09 10° S daylight
